Home > Weather > Welland > Past weeks

Flag for Canada Weather for the Past 2 Weeks in Welland, Ontario, Canada

Now
15 °F

Cold.


Feels Like: -1 °F
Forecast: 12 / 17 °F
Wind: 17 mph from Northwest

Location: Port Colborne Airport

Current Time: Feb 11, 2016 at 2:11:08 AM

Latest Report: Feb 11, 2016 at 1:00 AM


Visibility: N/A

Pressure: 29.87 "Hg

Humidity: 64%

Dew point: 5 °F

Location of WellandLocation

Historic Weather in Welland — Graph

°F

Welland Temperature Yesterday

Maximum temperature yesterday: 30 °F (at 12:00 AM)
Minimum temperature yesterday: 16 °F (at 9:00 PM)
Average temperature yesterday: 24 °F

High & Low Weather Summary for the Past Weeks

 TemperatureHumidityPressure
High48 °F (Jan 31, 5:00 PM)100% (Feb 9, 8:00 AM)30.36 "Hg (Feb 9, 8:00 AM)
Low15 °F (Feb 11, 1:00 AM)44% (Feb 8, 3:00 PM)29.50 "Hg (Jan 31, 11:00 PM)
Average34 °F75%29.89 "Hg
* Reported Jan 27 1:00 AM — Feb 11 1:00 AM, Welland, Weather by CustomWeather, © 2016

Note: Actual official high and low records may vary slightly from our data, if they occured in-between our weather recording intervals... More about our weather records

Advertising

Welland Weather History for the Previous 24 Hours

 ConditionsComfort  
Time TempWeatherWind HumidityBarometerVisibility
1:00 AM
Thu, Feb 11
15 °FCold.17 mph64%29.87 "HgN/A
12:00 AM15 °FCold.16 mph66%29.87 "HgN/A
11:00 PM
Wed, Feb 10
17 °FCold.18 mph69%29.87 "HgN/A
10:00 PM16 °FCold.21 mph72%29.87 "HgN/A
9:00 PM16 °FCold.25 mph72%29.86 "HgN/A
8:00 PM18 °FCold.24 mph66%29.85 "HgN/A
7:00 PM18 °FCold.24 mph72%29.83 "HgN/A
6:00 PM19 °FCold.29 mph70%29.81 "HgN/A
5:00 PM21 °FCold.29 mph75%29.78 "HgN/A
4:00 PM22 °FCold.25 mph72%29.75 "HgN/A
3:00 PM23 °FCold.31 mph70%29.71 "HgN/A
2:00 PM24 °FCold.26 mph71%29.69 "HgN/A
1:00 PM24 °FCold.24 mph75%29.68 "HgN/A
12:00 PM25 °FCold.25 mph76%29.69 "HgN/A
11:00 AM24 °FCold.29 mph81%29.69 "HgN/A
10:00 AM25 °FCold.29 mph80%29.67 "HgN/A
9:00 AM25 °FChilly.26 mph84%29.66 "HgN/A
8:00 AM26 °FChilly.30 mph82%29.65 "HgN/A
7:00 AM26 °FChilly.25 mph82%29.63 "HgN/A
6:00 AM27 °FChilly.23 mph82%29.61 "HgN/A
5:00 AM29 °FChilly.26 mph77%29.59 "HgN/A
4:00 AM28 °FChilly.29 mph84%29.57 "HgN/A
3:00 AM29 °FChilly.29 mph86%29.55 "HgN/A
2:00 AM30 °FChilly.31 mph90%29.54 "HgN/A
Weather by CustomWeather, © 2016

See weather overviewHow to use our weather pages